Weather History for Mitchell, SD

Change the Weather History Date:

Thursday, October 27, 2011

  Actual Average Record
Temperature  
Mean Temperature 41 °F 45 °F  
Max Temperature 55 °F 56 °F 82 °F (1922)
Min Temperature 27 °F 34 °F 14 °F (1997)
Degree Days  
Heating Degree Days 24 20  
Month to date heating degree days 275 399  
Since 1 July heating degree days 450 557  
Cooling Degree Days 0 0  
Month to date cooling degree days 37 7  
Year to date cooling degree days 994 824  
Moisture  
Dew Point 25 °F    
Average Humidity 61    
Maximum Humidity 92    
Minimum Humidity 29    
Precipitation  
Precipitation 0.00 in 0.03 in 0.70 in (1971)
Month to date precipitation 2.19 1.50  
Year to date precipitation 19.11 20.17  
Snow  
Snow 0.00 in - 2.50 in (1925)
Month to date snowfall 0.0  
Since 1 July snowfall 0.0  
Since 1 September snowfall 0.0  
Snow Depth 0.00 in    
Sea Level Pressure  
Sea Level Pressure 30.11 in    
Wind  
Wind Speed 6 mph (WSW)    
Max Wind Speed 13 mph    
Max Gust Speed 17 mph    
Visibility 10 miles    
Events      
T = Trace of Precipitation, MM = Missing Value Source: NWS Daily Summary

Daily Weather History Graph

Daily Weather History Graph

Search for Another Location

Airport:

Trip Planner

Search our weather history database for the weather conditions in past years. The results will help you decide how hot, cold, wet, or windy it might be!

Date:

Astronomy

Oct. 27, 2011 Rise Set
Actual Time 8:01 AM CDT 6:30 PM CDT
Civil Twilight 7:31 AM CDT 6:59 PM CDT
Nautical Twilight 6:58 AM CDT 7:33 PM CDT
Astronomical Twilight 6:24 AM CDT 8:06 PM CDT
Moon 9:10 AM CDT 6:55 PM CDT
Length of Visible Light 11h 27m
Length of Day
10h 28m
New Moon, 1% of the Moon is Illuminated
Oct 27
New Moon
Nov 2
First Quarter
Nov 10
Full
Nov 18
Last Quarter
Nov 25
New

Hourly Weather History & Observations

Time (CDT) Temp. Windchill Dew Point Humidity Pressure Visibility Wind Dir Wind Speed Gust Speed Precip Events Conditions
1:53 AM 34.0 °F 27.2 °F 27.0 °F 75% 30.15 in 10.0 mi West 8.1 mph - N/A   Scattered Clouds
2:53 AM 32.0 °F 25.6 °F 26.1 °F 79% 30.15 in 10.0 mi West 6.9 mph - N/A   Scattered Clouds
3:53 AM 30.9 °F 24.3 °F 26.1 °F 82% 30.15 in 10.0 mi West 6.9 mph - N/A   Clear
4:53 AM 30.0 °F 25.2 °F 25.0 °F 82% 30.15 in 10.0 mi West 4.6 mph - N/A   Clear
6:53 AM 27.0 °F 23.0 °F 24.1 °F 89% 30.15 in 10.0 mi West 3.5 mph - N/A   Clear
7:53 AM 28.0 °F 24.2 °F 24.1 °F 85% 30.15 in 10.0 mi West 3.5 mph - N/A   Clear
8:53 AM 28.9 °F 25.2 °F 25.0 °F 85% 30.15 in 10.0 mi WSW 3.5 mph - N/A   Clear
9:53 AM 34.0 °F - 28.0 °F 79% 30.15 in 10.0 mi Calm Calm - N/A   Clear
10:53 AM 39.0 °F - 30.0 °F 70% 30.15 in 10.0 mi Calm Calm - N/A   Clear
11:53 AM 46.9 °F - 30.9 °F 54% 30.15 in 10.0 mi SSW 6.9 mph - N/A   Clear
12:53 PM 51.1 °F - 30.0 °F 44% 30.13 in 10.0 mi SSW 8.1 mph - N/A   Clear
2:53 PM 54.0 °F - 25.0 °F 33% 30.07 in 10.0 mi SW 6.9 mph 17.3 mph N/A   Clear
3:53 PM 54.0 °F - 25.0 °F 33% 30.06 in 10.0 mi WSW 12.7 mph 17.3 mph N/A   Clear
4:53 PM 53.1 °F - 23.0 °F 31% 30.06 in 10.0 mi WSW 6.9 mph - N/A   Clear
6:53 PM 48.0 °F - 25.0 °F 41% 30.07 in 10.0 mi South 4.6 mph - N/A   Clear
7:53 PM 46.0 °F 43.9 °F 24.1 °F 42% 30.08 in 10.0 mi SSW 4.6 mph - N/A   Clear
8:53 PM 43.0 °F 38.2 °F 23.0 °F 45% 30.08 in 10.0 mi SSW 8.1 mph - N/A   Clear
9:53 PM 42.1 °F 37.1 °F 21.9 °F 45% 30.07 in 10.0 mi SSW 8.1 mph - N/A   Partly Cloudy
10:53 PM 39.0 °F 34.0 °F 21.9 °F 50% 30.08 in 10.0 mi SW 6.9 mph - N/A   Mostly Cloudy
11:53 PM 39.0 °F 34.0 °F 23.0 °F 53% 30.07 in 10.0 mi SW 6.9 mph - N/A   Mostly Cloudy